Location: Big Meadow
(36.7100°N, 118.8650°W)
Time: 08:15:15
(UTC-07:00)

Daily predictions for brighter satellites

Satellite Brightness Start Highest point End
(mag) Time Altitude Azimuth Time Altitude Azimuth Time Altitude Azimuth
Milstar 3 4.4 18:53:05 10° WSW 19:01:38 57° S 19:17:52 10° ESE
USA 215 3.8 18:58:20 10° ENE 19:04:20 38° SE 19:10:17 10° SSW
Cosmos 1805 4.1 19:02:31 10° SSE 19:05:54 28° E 19:09:19 10° NNE
Aureole 2 Rocket 3.7 19:01:41 10° SSW 19:06:00 59° WNW 19:10:15 10° N
GPS 2-04 Rocket1 3.1 19:04:29 10° SW 19:07:42 38° SSE 19:11:01 10° E
Cosmos 1624 Rocket 4.3 19:02:31 10° NNW 19:07:44 76° WSW 19:12:53 10° S
Cosmos 2278 Rocket 3.7 19:02:45 10° NW 19:08:03 42° WSW 19:13:19 10° S
IDEFIX/ARIANE 42P 3.7 19:05:17 10° S 19:10:21 51° W 19:15:27 10° NNW
Cosmos 1072 Rocket 4.4 19:05:55 10° S 19:11:57 69° E 19:18:02 10° NNE
Cosmos 1953 2.8 19:10:07 10° SSE 19:13:47 36° E 19:17:27 10° NNE
Cosmos 1707 4.4 19:13:09 10° NNW 19:16:46 39° W 19:20:21 10° SSW
Cosmos 2297 3.9 19:11:09 10° NNW 19:16:49 78° WSW 19:22:25 10° SSE
Cosmos 1076 Rocket 3.7 19:12:40 10° N 19:16:55 52° E 19:21:09 10° SSE
Meteor 1-29 4.4 19:14:33 10° NE 19:17:07 19° E 19:19:40 10° SE
Cosmos 1766 Rocket 3.9 19:13:04 10° N 19:17:13 42° E 19:21:20 10° SSE
Gbstr 26 Del rocket 3.9 19:13:40 10° S 19:17:23 31° SE 19:21:46 10° ENE
SAR-Lupe-1 4.2 19:14:01 10° SSE 19:17:26 49° ENE 19:20:54 10° N
ATLAS CENTAUR R/B 3.5 19:15:46 10° NW 19:19:18 28° WSW 19:22:34 10° S
Cosmos 1437 4.2 19:16:25 10° NNW 19:19:32 42° W 19:22:38 10° SSW
NOAA 12 4.2 19:16:54 10° SSE 19:22:01 56° ENE 19:27:11 10° N
Cosmos-2242 3.3 19:19:01 10° SSE 19:23:09 44° E 19:27:19 10° NNE
Cosmos 1943 4.2 19:19:23 10° SSE 19:23:44 23° E 19:28:05 10° NE
Cosmos 2369 Rocket 3.7 19:20:37 10° NNE 19:24:20 18° NE 19:27:09 13° E
Cosmos 1603 3.7 19:24:07 10° S 19:29:46 67° ESE 19:35:29 10° NNE
Cosmos 1470 4.0 19:27:35 10° SE 19:30:31 21° E 19:33:28 10° NE
ATLAS CENTAUR R/B 3.7 19:26:44 10° SW 19:31:15 72° NW 19:45:33 10° NE
OAO 3 Rocket 3.2 19:26:40 10° W 19:31:23 72° S 19:35:09 16° ESE
SEDSat Delta rocket 4.4 19:26:02 10° W 19:32:22 55° S 19:37:58 15° ESE
BREEZE-M DEB (TANK) 3.3 19:31:26 10° WNW 19:33:41 37° SW 19:38:33 10° SSE
Meteor 1-24 Rocket 4.4 19:28:38 10° NNW 19:34:05 58° W 19:39:21 10° S
Cosmos 1452 Rocket 3.4 19:32:07 10° NNW 19:37:23 75° ENE 19:42:37 10° SSE
Cosmos 1674 3.8 19:36:49 10° NNE 19:40:02 24° ENE 19:41:20 20° ESE
Spot 1 4.2 19:35:33 10° SSE 19:40:13 60° ENE 19:44:37 10° N
SJ-6B 3.0 19:38:52 10° S 19:42:49 77° WSW 19:46:54 10° NNW
ASTRO E2 4.0 19:41:19 10° WSW 19:44:55 31° S 19:47:22 17° SE
ASTEX 1 4.0 19:40:52 10° NNE 19:45:16 33° E 19:49:38 10° SSE
In-Cosmos 22 4.2 19:39:54 10° N 19:45:43 87° E 19:51:26 10° S
Cosmos 2034 Rocket 4.0 19:40:45 10° S 19:47:00 89° E 19:53:22 10° N
Cosmos 1464 Rocket 4.4 19:41:16 10° SSW 19:47:27 66° W 19:53:37 10° N
Cosmos 1842 Rocket 4.0 19:43:47 10° SSE 19:47:46 38° E 19:51:48 10° NNE
Cosmos 1408 Rocket 3.7 19:44:36 10° N 19:48:57 74° W 19:53:13 10° S
Cosmos 1500 Rocket 4.2 19:45:44 10° NNE 19:49:46 33° ENE 19:52:00 21° SE
Cosmos 1420 Rocket 4.0 19:52:10 10° N 19:57:27 62° ENE 20:02:05 13° SSE
Cosmos 1758 4.0 19:53:40 10° SSW 19:57:40 57° W 20:01:43 10° N
ISS -2.8 19:55:02 10° WSW 19:58:14 57° NW 20:00:05 22° NE
BREEZE-M TANK 4.1 19:52:25 10° WNW 19:59:59 39° SW 20:02:33 14° SSE
ATLAS 5 CENTAUR R/B 3.6 19:56:01 10° WSW 20:00:18 32° NW 20:04:54 10° NNE
ALOS 2.5 19:59:05 20° SE 20:01:59 47° ENE 20:06:29 10° N
Helios 1A 2.9 19:58:16 10° SSE 20:02:28 80° ENE 20:06:41 10° N
FengYun 1-2 T 4.1 19:57:46 10° SSE 20:03:14 70° ENE 20:08:41 10° N
CENTAUR R/B 2.4 19:58:15 10° SSW 20:04:05 64° ESE 20:10:38 10° NE
Cosmos 1544 3.4 20:00:55 10° SSW 20:04:38 69° W 20:08:22 10° N
Spot 2 Rocket 3.6 20:04:40 10° S 20:09:42 77° WSW 20:14:45 10° NNW
Resurs 1-3 3.5 20:09:09 10° SSE 20:13:33 88° W 20:17:57 10° NNW
Cosmos 1048 Rocket 4.1 20:08:35 10° SSW 20:13:53 77° WNW 20:19:09 10° NNE
HJ-1C 4.3 20:11:55 10° S 20:15:10 48° W 20:18:26 10° NNW
Cosmos 1743 Rocket 3.7 20:14:38 10° N 20:19:04 74° W 20:23:25 10° S
Resurs 01 Rocket 2.2 20:15:10 10° S 20:19:32 57° W 20:23:56 10° NNW
Meteosat 1 Rocket2 4.5 20:18:11 10° WSW 20:24:15 32° S 20:25:14 30° SSE
CZ-2D R/B 3.3 20:26:22 65° NE 20:26:22 65° NE 20:29:55 10° N
Cosmos 1174 4.0 20:21:42 10° SSW 20:26:42 80° WNW 20:28:41 30° NNE
Cosmos 158 Rocket 3.7 20:26:48 10° SSW 20:31:42 87° WNW 20:36:36 10° NNE
FENGYUN 3A 3.7 20:32:56 21° S 20:36:39 80° WSW 20:42:03 10° NNW
Helios 1B rocket 4.4 20:33:40 10° N 20:37:15 30° WNW 20:40:51 10° SW
CZ-4B DEB 4.2 20:38:16 37° NW 20:38:16 37° NW 20:40:30 10° NNW
H-2A R/B 3.1 20:38:39 63° NNW 20:38:39 63° NNW 20:41:57 10° NNW
GP-B 3.5 20:42:03 10° N 20:45:35 56° N 20:45:35 56° N
GPS 2-04 Rocket1 4.1 20:43:49 10° W 20:45:48 32° WSW 20:45:48 32° WSW
USA 215 3.8 20:41:04 10° NE 20:47:25 56° NW 20:53:44 10° WSW
OAO 1 Rocket 4.5 20:44:12 10° W 20:49:28 66° SSW 20:49:28 66° SSW
SeaSat 1 4.2 20:54:19 20° SSW 20:54:19 20° SSW 20:55:49 10° SSW
Cosmos 2279 Rocket 4.1 20:54:12 56° NE 20:54:12 56° NE 20:59:20 10° NNE
ERS-1 Rocket 4.4 20:55:37 27° NNE 20:55:37 27° NNE 20:58:02 10° N
Gbstr 26 Del rocket 4.4 20:59:53 10° WSW 21:04:14 42° NNW 21:05:03 39° N
Cosmos 1943 Rocket 3.2 20:59:11 10° N 21:02:42 35° NNE 21:02:42 35° NNE
Cosmos 1943 4.3 21:02:08 10° SW 21:07:26 42° WNW 21:12:46 10° N
Cosmos 2369 Rocket 2.4 21:03:13 10° NNW 21:08:50 65° WSW 21:08:59 65° WSW
Cosmos 1655 Rocket 3.9 21:04:36 10° N 21:10:29 81° N 21:10:29 81° N
Cosmos 2026 Rocket 4.0 21:09:55 10° N 21:16:01 73° W 21:16:08 73° WSW
CENTAUR R/B 4.5 21:50:20 10° W 21:55:20 24° NW 22:00:48 10° NNE
